When you browse on this site, cookies collect data to enhance your experience and personalize the content and advertising you see.
Visit our Privacy Policy to learn more. By continuing to use the site, you agree to this use of cookies and data.
  • In Hungary
  • List of Countries
  • For 7 days
  • Water Temperature
  • Weather Map
  • News
  • Weather Widgets
  • user-avatar
    Login

    Hourly Weather Zelentsi

    Today, 25 August, Sunday

    Time Temperature Precipitation Wind Pressure Humidity
    00:00 +16°C° 0 mm 2 mps 742 mmHg 78%
    01:00 +16°C° 0 mm 2 mps 742 mmHg 77%
    02:00 +16°C° 0 mm 2 mps 742 mmHg 76%
    03:00 +15°C° 0 mm 2 mps 742 mmHg 75%
    04:00 +15°C° 0 mm 2 mps 742 mmHg 74%
    05:00 +15°C° 0 mm 2 mps 742 mmHg 73%
    06:00 +16°C° 0 mm 2 mps 742 mmHg 70%
    07:00 +17°C° 0 mm 2 mps 742 mmHg 68%
    08:00 +18°C° 0 mm 3 mps 742 mmHg 66%
    09:00 +20°C° 0 mm 3 mps 743 mmHg 62%
    10:00 +21°C° 0 mm 3 mps 743 mmHg 58%
    11:00 +24°C° 0 mm 3 mps 743 mmHg 54%
    12:00 +25°C° 0 mm 3 mps 743 mmHg 52%
    13:00 +25°C° 0 mm 3 mps 743 mmHg 51%
    14:00 +26°C° 0 mm 3 mps 743 mmHg 49%
    15:00 +26°C° 0 mm 3 mps 742 mmHg 51%
    16:00 +25°C° 0 mm 3 mps 742 mmHg 54%
    17:00 +25°C° 0 mm 3 mps 742 mmHg 56%
    18:00 +22°C° 0 mm 3 mps 742 mmHg 60%
    19:00 +20°C° 0 mm 3 mps 742 mmHg 64%
    20:00 +18°C° 0 mm 3 mps 742 mmHg 68%
    21:00 +18°C° 0 mm 3 mps 742 mmHg 67%
    22:00 +17°C° 0 mm 3 mps 742 mmHg 67%
    23:00 +16°C° 0 mm 3 mps 742 mmHg 66%

    Tomorrow, 26 August, Monday

    Time Temperature Precipitation Wind Pressure Humidity
    00:00 +16°C° 0 mm 3 mps 742 mmHg 67%
    01:00 +15°C° 0 mm 2 mps 742 mmHg 68%
    02:00 +15°C° 0 mm 2 mps 742 mmHg 69%
    03:00 +15°C° 0 mm 2 mps 742 mmHg 72%
    04:00 +14°C° 0 mm 2 mps 742 mmHg 75%
    05:00 +14°C° 0 mm 2 mps 742 mmHg 78%
    06:00 +16°C° 0 mm 2 mps 742 mmHg 74%
    07:00 +17°C° 0 mm 3 mps 742 mmHg 70%
    08:00 +19°C° 0 mm 3 mps 742 mmHg 67%
    09:00 +21°C° 0 mm 3 mps 742 mmHg 61%
    10:00 +23°C° 0 mm 4 mps 742 mmHg 56%
    11:00 +26°C° 0 mm 4 mps 742 mmHg 51%
    12:00 +26°C° 0 mm 4 mps 742 mmHg 49%
    13:00 +27°C° 0 mm 4 mps 742 mmHg 47%
    14:00 +28°C° 0 mm 4 mps 742 mmHg 45%
    15:00 +27°C° 0 mm 3 mps 741 mmHg 48%
    16:00 +27°C° 0 mm 3 mps 741 mmHg 50%
    17:00 +27°C° 0 mm 2 mps 741 mmHg 53%
    18:00 +25°C° 0 mm 2 mps 741 mmHg 59%
    19:00 +23°C° 0 mm 2 mps 741 mmHg 65%
    20:00 +20°C° 0 mm 3 mps 741 mmHg 71%
    21:00 +19°C° 0 mm 3 mps 741 mmHg 74%
    22:00 +18°C° 0 mm 3 mps 741 mmHg 77%
    23:00 +17°C° 0 mm 3 mps 741 mmHg 80%

    Day after tomorrow, 27 August, Tuesday

    Time Temperature Precipitation Wind Pressure Humidity
    00:00 +17°C° 0 mm 3 mps 741 mmHg 80%
    01:00 +17°C° 0 mm 2 mps 741 mmHg 79%
    02:00 +16°C° 0 mm 2 mps 741 mmHg 79%
    03:00 +16°C° 0 mm 2 mps 740 mmHg 79%
    04:00 +16°C° 0 mm 2 mps 740 mmHg 80%
    05:00 +15°C° 0 mm 2 mps 740 mmHg 80%
    06:00 +17°C° 0 mm 2 mps 740 mmHg 76%
    07:00 +19°C° 0 mm 2 mps 741 mmHg 71%
    08:00 +20°C° 0 mm 2 mps 741 mmHg 67%
    09:00 +23°C° 0 mm 2 mps 741 mmHg 61%
    10:00 +25°C° 0 mm 2 mps 741 mmHg 56%
    11:00 +27°C° 0 mm 2 mps 741 mmHg 51%
    12:00 +27°C° 0 mm 2 mps 741 mmHg 49%
    13:00 +28°C° 0 mm 2 mps 741 mmHg 46%
    14:00 +29°C° 0 mm 2 mps 741 mmHg 44%
    15:00 +28°C° 0 mm 2 mps 741 mmHg 46%
    16:00 +28°C° 0 mm 2 mps 740 mmHg 48%
    17:00 +28°C° 0 mm 2 mps 740 mmHg 50%
    18:00 +26°C° 0 mm 2 mps 740 mmHg 56%
    19:00 +22°C° 0 mm 3 mps 740 mmHg 62%
    20:00 +20°C° 0 mm 3 mps 740 mmHg 68%
    21:00 +20°C° 0 mm 3 mps 740 mmHg 70%
    22:00 +19°C° 0 mm 2 mps 741 mmHg 71%
    23:00 +18°C° 0 mm 2 mps 741 mmHg 72%

    28 August, Wednesday

    Time Temperature Precipitation Wind Pressure Humidity
    00:00 +18°C° 0 mm 2 mps 741 mmHg 73%
    01:00 +17°C° 0 mm 2 mps 741 mmHg 75%
    02:00 +17°C° 0 mm 2 mps 741 mmHg 77%
    03:00 +16°C° 0 mm 2 mps 741 mmHg 78%
    04:00 +16°C° 0 mm 1 mps 741 mmHg 80%
    05:00 +16°C° 0 mm 1 mps 741 mmHg 81%
    06:00 +18°C° 0 mm 1 mps 741 mmHg 76%
    07:00 +20°C° 0 mm 1 mps 741 mmHg 71%
    08:00 +21°C° 0 mm 1 mps 741 mmHg 66%
    09:00 +23°C° 0 mm 2 mps 741 mmHg 61%
    10:00 +24°C° 0 mm 2 mps 741 mmHg 57%
    11:00 +26°C° 0 mm 2 mps 741 mmHg 52%
    12:00 +26°C° 0 mm 2 mps 741 mmHg 50%
    13:00 +27°C° 0 mm 3 mps 740 mmHg 48%
    14:00 +27°C° 0 mm 3 mps 740 mmHg 45%
    15:00 +27°C° 0 mm 3 mps 740 mmHg 48%
    16:00 +27°C° 0 mm 3 mps 740 mmHg 51%
    17:00 +26°C° 0 mm 3 mps 739 mmHg 54%
    18:00 +24°C° 0 mm 3 mps 739 mmHg 60%
    19:00 +21°C° 0 mm 3 mps 739 mmHg 67%
    20:00 +19°C° 0 mm 3 mps 739 mmHg 73%
    21:00 +19°C° 0 mm 3 mps 739 mmHg 74%
    22:00 +18°C° 0 mm 3 mps 739 mmHg 74%
    23:00 +17°C° 0 mm 3 mps 739 mmHg 75%

    29 August, Thursday

    Time Temperature Precipitation Wind Pressure Humidity
    00:00 +17°C° 0 mm 3 mps 739 mmHg 75%
    01:00 +16°C° 0 mm 3 mps 739 mmHg 76%
    02:00 +16°C° 0 mm 3 mps 739 mmHg 77%
    03:00 +14°C° 0 mm 3 mps 739 mmHg 76%
    04:00 +13°C° 0 mm 3 mps 739 mmHg 76%
    05:00 +13°C° 0 mm 3 mps 739 mmHg 75%
    06:00 +14°C° 0 mm 3 mps 739 mmHg 73%
    07:00 +15°C° 0 mm 4 mps 739 mmHg 70%
    08:00 +18°C° 0 mm 4 mps 739 mmHg 67%
    09:00 +19°C° 0 mm 4 mps 740 mmHg 63%
    10:00 +21°C° 0 mm 4 mps 740 mmHg 58%
    11:00 +22°C° 0 mm 5 mps 740 mmHg 53%
    12:00 +23°C° 0 mm 5 mps 740 mmHg 52%
    13:00 +23°C° 0 mm 5 mps 740 mmHg 51%
    14:00 +25°C° 0 mm 5 mps 739 mmHg 50%
    15:00 +23°C° 0 mm 5 mps 739 mmHg 51%
    16:00 +22°C° 0 mm 5 mps 739 mmHg 52%
    17:00 +22°C° 0 mm 5 mps 739 mmHg 52%
    18:00 +20°C° 0 mm 4 mps 739 mmHg 55%
    19:00 +18°C° 0 mm 4 mps 739 mmHg 57%
    20:00 +15°C° 0 mm 4 mps 739 mmHg 59%
    21:00 +14°C° 0 mm 4 mps 739 mmHg 56%
    22:00 +14°C° 0 mm 4 mps 739 mmHg 53%
    23:00 +13°C° 0 mm 4 mps 740 mmHg 50%

    30 August, Friday

    Time Temperature Precipitation Wind Pressure Humidity
    00:00 +12°C° 0 mm 4 mps 740 mmHg 51%
    01:00 +12°C° 0 mm 3 mps 740 mmHg 52%
    02:00 +11°C° 0 mm 3 mps 740 mmHg 53%
    03:00 +11°C° 0 mm 3 mps 740 mmHg 54%
    04:00 +10°C° 0 mm 3 mps 740 mmHg 54%
    05:00 +10°C° 0 mm 3 mps 740 mmHg 55%
    06:00 +11°C° 0 mm 4 mps 740 mmHg 55%
    07:00 +13°C° 0 mm 4 mps 740 mmHg 55%
    08:00 +14°C° 0 mm 4 mps 740 mmHg 55%
    09:00 +17°C° 0 mm 4 mps 740 mmHg 51%
    10:00 +19°C° 0 mm 4 mps 741 mmHg 47%
    11:00 +20°C° 0 mm 4 mps 741 mmHg 42%
    12:00 +21°C° 0 mm 4 mps 741 mmHg 40%
    13:00 +22°C° 0 mm 4 mps 740 mmHg 38%
    14:00 +23°C° 0 mm 4 mps 740 mmHg 36%
    15:00 +22°C° 0 mm 3 mps 740 mmHg 38%
    16:00 +22°C° 0 mm 3 mps 740 mmHg 41%
    17:00 +22°C° 0 mm 3 mps 740 mmHg 43%
    18:00 +20°C° 0 mm 3 mps 740 mmHg 48%
    19:00 +18°C° 0 mm 3 mps 739 mmHg 52%
    20:00 +14°C° 0 mm 3 mps 739 mmHg 57%
    21:00 +14°C° 0 mm 3 mps 740 mmHg 57%
    22:00 +13°C° 0 mm 3 mps 740 mmHg 56%
    23:00 +12°C° 0 mm 3 mps 740 mmHg 56%
    Show more